LOCATION_NAME,SAMPLE COLLECTION TIME,DOSE EQUIVALENT RATE (nSv/h),GAMMA COUNT RATE R02 (CPM),GAMMA COUNT RATE R03 (CPM),GAMMA COUNT RATE R04 (CPM),GAMMA COUNT RATE R05 (CPM),GAMMA COUNT RATE R06 (CPM),GAMMA COUNT RATE R07 (CPM),GAMMA COUNT RATE R08 (CPM),GAMMA COUNT RATE R09 (CPM),STATUS
OK: TULSA,01/01/2019 00:20:00,,1992.00,1181.00,356.00,191.00,118.00,149.00,87.00,48.00,APPROVED
OK: TULSA,01/01/2019 01:20:00,,2006.00,1185.00,355.00,192.00,118.00,146.00,86.00,48.00,APPROVED
OK: TULSA,01/01/2019 02:20:00,,1986.00,1186.00,361.00,192.00,116.00,148.00,87.00,48.00,APPROVED
OK: TULSA,01/01/2019 03:20:00,,2039.00,1236.00,373.00,200.00,120.00,154.00,90.00,49.00,APPROVED
OK: TULSA,01/01/2019 04:20:00,,2129.00,1292.00,414.00,193.00,125.00,173.00,86.00,49.00,APPROVED
OK: TULSA,01/01/2019 05:21:00,,2096.00,1274.00,406.00,202.00,126.00,168.00,89.00,49.00,APPROVED
OK: TULSA,01/01/2019 06:21:00,,2034.00,1254.00,385.00,201.00,125.00,162.00,91.00,48.00,APPROVED
OK: TULSA,01/01/2019 07:21:00,,2012.00,1227.00,371.00,198.00,122.00,157.00,89.00,47.00,APPROVED
OK: TULSA,01/01/2019 08:21:00,,1997.00,1198.00,369.00,194.00,115.00,153.00,87.00,47.00,APPROVED
OK: TULSA,01/01/2019 09:21:00,,1973.00,1188.00,364.00,191.00,118.00,152.00,87.00,44.00,APPROVED
OK: TULSA,01/01/2019 10:22:00,,1966.00,1174.00,364.00,187.00,116.00,151.00,86.00,47.00,APPROVED
OK: TULSA,01/01/2019 11:22:00,,1966.00,1183.00,369.00,188.00,115.00,151.00,84.00,48.00,APPROVED
OK: TULSA,01/01/2019 12:22:00,,1950.00,1174.00,362.00,187.00,117.00,151.00,86.00,46.00,APPROVED
OK: TULSA,01/01/2019 13:22:00,,1917.00,1161.00,358.00,182.00,115.00,151.00,86.00,46.00,APPROVED
OK: TULSA,01/01/2019 14:23:00,,1933.00,1149.00,356.00,179.00,115.00,148.00,84.00,46.00,APPROVED
OK: TULSA,01/01/2019 15:23:00,,1917.00,1143.00,349.00,179.00,114.00,147.00,83.00,45.00,APPROVED
OK: TULSA,01/01/2019 16:23:00,,1924.00,1133.00,354.00,178.00,114.00,146.00,81.00,45.00,APPROVED
OK: TULSA,01/01/2019 17:23:00,,1916.00,1142.00,351.00,183.00,110.00,147.00,83.00,45.00,APPROVED
OK: TULSA,01/01/2019 18:23:00,,1928.00,1142.00,353.00,181.00,116.00,145.00,82.00,46.00,APPROVED
OK: TULSA,01/01/2019 19:24:00,,1922.00,1136.00,353.00,181.00,111.00,145.00,80.00,48.00,APPROVED
OK: TULSA,01/01/2019 20:24:00,,1912.00,1131.00,354.00,180.00,113.00,145.00,83.00,46.00,APPROVED
OK: TULSA,01/01/2019 21:24:00,,1917.00,1135.00,345.00,180.00,114.00,144.00,84.00,46.00,APPROVED
OK: TULSA,01/01/2019 22:24:00,,1926.00,1132.00,349.00,179.00,115.00,142.00,82.00,47.00,APPROVED
OK: TULSA,01/01/2019 23:24:00,,1938.00,1136.00,353.00,179.00,111.00,144.00,82.00,45.00,APPROVED
OK: TULSA,01/02/2019 00:25:00,,1906.00,1130.00,346.00,175.00,114.00,143.00,83.00,46.00,APPROVED
OK: TULSA,01/02/2019 01:25:00,,1903.00,1118.00,341.00,178.00,111.00,141.00,80.00,46.00,APPROVED
OK: TULSA,01/02/2019 02:25:00,,1909.00,1118.00,346.00,174.00,112.00,143.00,81.00,47.00,APPROVED
OK: TULSA,01/02/2019 03:25:00,,1904.00,1126.00,346.00,175.00,113.00,139.00,81.00,45.00,APPROVED
OK: TULSA,01/02/2019 04:25:00,,1905.00,1123.00,350.00,182.00,112.00,143.00,81.00,45.00,APPROVED
OK: TULSA,01/02/2019 05:26:00,,1911.00,1119.00,346.00,178.00,112.00,142.00,81.00,46.00,APPROVED
OK: TULSA,01/02/2019 06:26:00,,1908.00,1125.00,345.00,179.00,114.00,142.00,82.00,47.00,APPROVED
OK: TULSA,01/02/2019 07:26:00,,1917.00,1131.00,349.00,176.00,113.00,145.00,82.00,46.00,APPROVED
OK: TULSA,01/02/2019 08:26:00,,1912.00,1131.00,351.00,178.00,113.00,144.00,79.00,45.00,APPROVED
OK: TULSA,01/02/2019 09:26:00,,1905.00,1122.00,344.00,179.00,114.00,143.00,83.00,46.00,APPROVED
OK: TULSA,01/02/2019 10:27:00,,1917.00,1115.00,344.00,175.00,111.00,140.00,83.00,45.00,APPROVED
OK: TULSA,01/02/2019 11:27:00,,1892.00,1118.00,347.00,175.00,111.00,142.00,82.00,46.00,APPROVED
OK: TULSA,01/02/2019 12:27:00,,1904.00,1118.00,339.00,175.00,111.00,142.00,84.00,46.00,APPROVED
OK: TULSA,01/02/2019 13:27:00,,1906.00,1118.00,347.00,176.00,111.00,141.00,82.00,46.00,APPROVED
OK: TULSA,01/02/2019 14:28:00,,1923.00,1122.00,342.00,175.00,113.00,142.00,82.00,47.00,APPROVED
OK: TULSA,01/02/2019 15:28:00,,1911.00,1129.00,342.00,174.00,112.00,139.00,83.00,47.00,APPROVED
OK: TULSA,01/02/2019 16:28:00,,1922.00,1121.00,342.00,175.00,111.00,140.00,80.00,47.00,APPROVED
OK: TULSA,01/02/2019 17:28:00,,1926.00,1099.00,345.00,161.00,110.00,143.00,69.00,46.00,APPROVED
OK: TULSA,01/02/2019 18:28:00,,1943.00,1130.00,345.00,176.00,113.00,141.00,80.00,48.00,APPROVED
OK: TULSA,01/02/2019 19:29:00,,1958.00,1134.00,344.00,175.00,112.00,144.00,83.00,45.00,APPROVED
OK: TULSA,01/02/2019 20:29:00,,1959.00,1136.00,345.00,180.00,112.00,139.00,84.00,48.00,APPROVED
OK: TULSA,01/02/2019 21:29:00,,1933.00,1133.00,342.00,176.00,112.00,142.00,83.00,46.00,APPROVED
OK: TULSA,01/02/2019 22:29:00,,1942.00,1131.00,340.00,177.00,113.00,139.00,83.00,45.00,APPROVED
OK: TULSA,01/02/2019 23:29:00,,1948.00,1136.00,340.00,176.00,112.00,140.00,83.00,47.00,APPROVED
OK: TULSA,01/03/2019 00:30:00,,1954.00,1116.00,337.00,173.00,111.00,138.00,81.00,44.00,APPROVED
OK: TULSA,01/03/2019 01:30:00,,1989.00,1164.00,350.00,181.00,114.00,139.00,84.00,46.00,APPROVED
OK: TULSA,01/03/2019 02:30:00,,1950.00,1138.00,343.00,172.00,110.00,139.00,82.00,46.00,APPROVED
OK: TULSA,01/03/2019 03:30:00,,1924.00,1123.00,335.00,175.00,110.00,137.00,79.00,46.00,APPROVED
OK: TULSA,01/03/2019 04:30:00,,1918.00,1118.00,340.00,172.00,111.00,135.00,81.00,46.00,APPROVED
OK: TULSA,01/03/2019 05:31:00,,1967.00,1135.00,344.00,180.00,112.00,140.00,84.00,46.00,APPROVED
OK: TULSA,01/03/2019 06:31:00,,1957.00,1139.00,346.00,179.00,113.00,143.00,84.00,46.00,APPROVED
OK: TULSA,01/03/2019 07:31:00,,1944.00,1137.00,339.00,178.00,114.00,141.00,82.00,46.00,APPROVED
OK: TULSA,01/03/2019 08:31:00,,1943.00,1134.00,341.00,179.00,110.00,141.00,81.00,46.00,APPROVED
OK: TULSA,01/03/2019 09:32:00,,1952.00,1135.00,341.00,179.00,113.00,138.00,82.00,47.00,APPROVED
OK: TULSA,01/03/2019 10:32:00,,1966.00,1152.00,350.00,176.00,113.00,140.00,82.00,46.00,APPROVED
OK: TULSA,01/03/2019 11:32:00,,1970.00,1145.00,349.00,179.00,113.00,143.00,81.00,46.00,APPROVED
OK: TULSA,01/03/2019 12:32:00,,1949.00,1142.00,345.00,177.00,112.00,142.00,83.00,46.00,APPROVED
OK: TULSA,01/03/2019 13:32:00,,1986.00,1173.00,355.00,184.00,114.00,141.00,85.00,46.00,APPROVED
OK: TULSA,01/03/2019 14:33:00,,2091.00,1275.00,389.00,199.00,124.00,158.00,91.00,49.00,APPROVED
OK: TULSA,01/03/2019 15:33:00,,2024.00,1209.00,372.00,189.00,119.00,149.00,89.00,48.00,APPROVED
OK: TULSA,01/03/2019 16:33:00,,2111.00,1269.00,386.00,200.00,122.00,158.00,88.00,47.00,APPROVED
OK: TULSA,01/03/2019 22:34:00,,2115.00,1290.00,395.00,207.00,125.00,163.00,91.00,48.00,APPROVED
OK: TULSA,01/03/2019 23:35:00,,2098.00,1276.00,395.00,204.00,123.00,164.00,92.00,48.00,APPROVED
OK: TULSA,01/04/2019 00:35:00,,2200.00,1377.00,422.00,218.00,128.00,172.00,95.00,49.00,APPROVED
OK: TULSA,01/04/2019 01:35:00,,2128.00,1322.00,409.00,213.00,125.00,167.00,95.00,50.00,APPROVED
OK: TULSA,01/04/2019 02:35:00,,2225.00,1416.00,429.00,229.00,131.00,173.00,99.00,52.00,APPROVED
OK: TULSA,01/04/2019 03:35:00,,2314.00,1474.00,449.00,238.00,136.00,182.00,102.00,49.00,APPROVED
OK: TULSA,01/04/2019 04:36:00,,2211.00,1389.00,425.00,222.00,131.00,173.00,96.00,51.00,APPROVED
OK: TULSA,01/04/2019 05:36:00,,2159.00,1349.00,411.00,218.00,125.00,169.00,95.00,49.00,APPROVED
OK: TULSA,01/04/2019 06:36:00,,2148.00,1330.00,409.00,217.00,128.00,168.00,95.00,49.00,APPROVED
OK: TULSA,01/04/2019 07:36:00,,2276.00,1444.00,436.00,234.00,137.00,182.00,100.00,52.00,APPROVED
OK: TULSA,01/04/2019 08:36:00,,2160.00,1356.00,417.00,222.00,130.00,172.00,96.00,49.00,APPROVED
OK: TULSA,01/04/2019 09:37:00,,2167.00,1359.00,418.00,221.00,130.00,171.00,95.00,50.00,APPROVED
OK: TULSA,01/04/2019 10:37:00,,2176.00,1367.00,421.00,224.00,132.00,174.00,97.00,52.00,APPROVED
OK: TULSA,01/04/2019 11:37:00,,2025.00,1250.00,381.00,199.00,121.00,159.00,90.00,48.00,APPROVED
OK: TULSA,01/04/2019 12:37:00,,1965.00,1169.00,359.00,191.00,115.00,148.00,86.00,47.00,APPROVED
OK: TULSA,01/04/2019 13:37:00,,1937.00,1150.00,352.00,185.00,110.00,147.00,82.00,45.00,APPROVED
OK: TULSA,01/04/2019 14:38:00,,1921.00,1139.00,341.00,181.00,114.00,141.00,82.00,45.00,APPROVED
OK: TULSA,01/04/2019 15:38:00,,1945.00,1145.00,346.00,183.00,112.00,143.00,83.00,46.00,APPROVED
OK: TULSA,01/04/2019 16:31:00,,1972.00,1163.00,352.00,183.00,113.00,145.00,83.00,49.00,APPROVED
OK: TULSA,01/04/2019 17:38:00,,1931.00,1089.00,322.00,164.00,105.00,134.00,79.00,42.00,APPROVED
OK: TULSA,01/04/2019 18:38:00,,1984.00,1155.00,340.00,179.00,109.00,141.00,82.00,46.00,APPROVED
OK: TULSA,01/04/2019 19:38:00,,1971.00,1160.00,342.00,185.00,112.00,142.00,86.00,46.00,APPROVED
OK: TULSA,01/04/2019 20:38:00,,1947.00,1126.00,340.00,174.00,111.00,138.00,81.00,46.00,APPROVED
OK: TULSA,01/04/2019 21:38:00,,1924.00,1094.00,329.00,172.00,108.00,133.00,77.00,46.00,APPROVED
OK: TULSA,01/04/2019 22:39:00,,1943.00,1104.00,329.00,170.00,109.00,135.00,81.00,45.00,APPROVED
OK: TULSA,01/04/2019 23:39:00,,1919.00,1095.00,328.00,170.00,107.00,132.00,83.00,45.00,APPROVED
OK: TULSA,01/05/2019 00:39:00,,1927.00,1092.00,326.00,169.00,108.00,134.00,80.00,45.00,APPROVED
OK: TULSA,01/05/2019 01:39:00,,1984.00,1139.00,340.00,175.00,110.00,139.00,82.00,45.00,APPROVED
OK: TULSA,01/05/2019 02:40:00,,2016.00,1169.00,349.00,178.00,113.00,140.00,84.00,47.00,APPROVED
OK: TULSA,01/05/2019 03:40:00,,2035.00,1195.00,353.00,182.00,112.00,144.00,82.00,45.00,APPROVED
OK: TULSA,01/05/2019 04:40:00,,2042.00,1211.00,359.00,188.00,115.00,150.00,85.00,46.00,APPROVED
OK: TULSA,01/05/2019 05:40:00,,2073.00,1223.00,364.00,194.00,116.00,149.00,85.00,48.00,APPROVED
OK: TULSA,01/05/2019 06:40:00,,2096.00,1256.00,373.00,194.00,121.00,152.00,87.00,48.00,APPROVED
OK: TULSA,01/05/2019 07:41:00,,2103.00,1277.00,383.00,205.00,123.00,157.00,92.00,48.00,APPROVED
OK: TULSA,01/05/2019 08:41:00,,2122.00,1315.00,389.00,211.00,125.00,165.00,92.00,49.00,APPROVED
OK: TULSA,01/05/2019 09:41:00,,2145.00,1334.00,398.00,217.00,128.00,166.00,95.00,49.00,APPROVED
OK: TULSA,01/05/2019 10:41:00,,2165.00,1353.00,404.00,222.00,128.00,171.00,95.00,50.00,APPROVED
OK: TULSA,01/05/2019 11:41:00,,2191.00,1394.00,414.00,233.00,133.00,174.00,98.00,53.00,APPROVED
OK: TULSA,01/05/2019 12:42:00,,2210.00,1432.00,423.00,241.00,137.00,181.00,101.00,51.00,APPROVED
OK: TULSA,01/05/2019 13:42:00,,2222.00,1449.00,438.00,251.00,139.00,184.00,102.00,53.00,APPROVED
OK: TULSA,01/05/2019 14:42:00,,2228.00,1446.00,438.00,245.00,139.00,183.00,102.00,54.00,APPROVED
OK: TULSA,01/05/2019 15:42:00,,2209.00,1390.00,421.00,237.00,134.00,179.00,100.00,52.00,APPROVED
OK: TULSA,01/05/2019 16:43:00,,2203.00,1368.00,405.00,226.00,131.00,168.00,97.00,52.00,APPROVED
OK: TULSA,01/05/2019 17:43:00,,2199.00,1347.00,396.00,219.00,129.00,167.00,96.00,51.00,APPROVED
OK: TULSA,01/05/2019 18:43:00,,2188.00,1326.00,391.00,215.00,129.00,160.00,95.00,51.00,APPROVED
OK: TULSA,01/05/2019 19:43:00,,2179.00,1301.00,386.00,211.00,126.00,157.00,92.00,49.00,APPROVED
OK: TULSA,01/05/2019 20:43:00,,2157.00,1293.00,378.00,206.00,123.00,159.00,91.00,48.00,APPROVED
OK: TULSA,01/05/2019 21:44:00,,2120.00,1259.00,375.00,197.00,120.00,154.00,88.00,48.00,APPROVED
OK: TULSA,01/05/2019 22:44:00,,2085.00,1227.00,365.00,192.00,119.00,147.00,86.00,48.00,APPROVED
OK: TULSA,01/05/2019 23:44:00,,2064.00,1224.00,362.00,186.00,116.00,148.00,85.00,49.00,APPROVED
OK: TULSA,01/06/2019 00:44:00,,2086.00,1226.00,359.00,188.00,118.00,145.00,87.00,48.00,APPROVED
OK: TULSA,01/06/2019 01:44:00,,2092.00,1272.00,370.00,202.00,122.00,150.00,87.00,50.00,APPROVED
OK: TULSA,01/06/2019 02:45:00,,2095.00,1287.00,380.00,203.00,121.00,156.00,92.00,49.00,APPROVED
OK: TULSA,01/06/2019 03:45:00,,2107.00,1314.00,384.00,212.00,124.00,164.00,97.00,49.00,APPROVED
OK: TULSA,01/06/2019 04:45:00,,2099.00,1313.00,390.00,217.00,127.00,165.00,94.00,51.00,APPROVED
OK: TULSA,01/06/2019 05:45:00,,2099.00,1307.00,393.00,214.00,126.00,167.00,96.00,50.00,APPROVED
OK: TULSA,01/06/2019 06:45:00,,2028.00,1227.00,368.00,197.00,119.00,150.00,88.00,48.00,APPROVED
OK: TULSA,01/06/2019 07:46:00,,1996.00,1169.00,352.00,183.00,114.00,145.00,85.00,46.00,APPROVED
OK: TULSA,01/06/2019 08:46:00,,1979.00,1150.00,343.00,176.00,112.00,139.00,84.00,46.00,APPROVED
OK: TULSA,01/06/2019 09:46:00,,1988.00,1162.00,347.00,180.00,115.00,141.00,84.00,47.00,APPROVED
OK: TULSA,01/06/2019 10:46:00,,1989.00,1161.00,347.00,183.00,113.00,140.00,84.00,45.00,APPROVED
OK: TULSA,01/06/2019 11:47:00,,1985.00,1149.00,348.00,181.00,113.00,142.00,85.00,45.00,APPROVED
OK: TULSA,01/06/2019 12:47:00,,1972.00,1144.00,342.00,177.00,110.00,137.00,83.00,47.00,APPROVED
OK: TULSA,01/06/2019 13:47:00,,1961.00,1139.00,342.00,177.00,111.00,138.00,82.00,47.00,APPROVED
OK: TULSA,01/06/2019 14:47:00,,1984.00,1144.00,344.00,174.00,110.00,137.00,82.00,46.00,APPROVED
OK: TULSA,01/06/2019 15:47:00,,1992.00,1149.00,345.00,178.00,111.00,139.00,83.00,46.00,APPROVED
OK: TULSA,01/06/2019 16:48:00,,1993.00,1163.00,342.00,178.00,113.00,138.00,84.00,45.00,APPROVED
OK: TULSA,01/06/2019 17:48:00,,2005.00,1166.00,345.00,181.00,113.00,140.00,84.00,47.00,APPROVED
OK: TULSA,01/06/2019 18:48:00,,2015.00,1163.00,344.00,181.00,112.00,139.00,85.00,47.00,APPROVED
OK: TULSA,01/06/2019 19:48:00,,2011.00,1166.00,343.00,180.00,111.00,139.00,85.00,47.00,APPROVED
OK: TULSA,01/06/2019 20:48:00,,2009.00,1163.00,347.00,184.00,112.00,142.00,83.00,49.00,APPROVED
OK: TULSA,01/06/2019 21:49:00,,2005.00,1160.00,342.00,179.00,111.00,138.00,84.00,48.00,APPROVED
OK: TULSA,01/06/2019 22:49:00,,1999.00,1151.00,343.00,177.00,113.00,140.00,84.00,46.00,APPROVED
OK: TULSA,01/06/2019 23:49:00,,1997.00,1141.00,341.00,177.00,110.00,141.00,84.00,46.00,APPROVED
OK: TULSA,01/07/2019 00:49:00,,1981.00,1133.00,342.00,176.00,110.00,138.00,80.00,45.00,APPROVED
OK: TULSA,01/07/2019 01:49:00,,1957.00,1116.00,333.00,170.00,111.00,133.00,81.00,45.00,APPROVED
OK: TULSA,01/07/2019 02:50:00,,1947.00,1119.00,335.00,170.00,111.00,134.00,82.00,45.00,APPROVED
OK: TULSA,01/07/2019 03:50:00,,1929.00,1105.00,332.00,169.00,107.00,133.00,79.00,45.00,APPROVED
OK: TULSA,01/07/2019 04:50:00,,1926.00,1086.00,331.00,168.00,107.00,132.00,80.00,44.00,APPROVED
OK: TULSA,01/07/2019 05:50:00,,1916.00,1084.00,329.00,166.00,108.00,130.00,81.00,44.00,APPROVED
OK: TULSA,01/07/2019 06:51:00,,1916.00,1081.00,324.00,165.00,103.00,130.00,79.00,46.00,APPROVED
OK: TULSA,01/07/2019 07:51:00,,1929.00,1085.00,322.00,165.00,106.00,132.00,79.00,44.00,APPROVED
OK: TULSA,01/07/2019 08:51:00,,1941.00,1100.00,327.00,168.00,108.00,132.00,81.00,45.00,APPROVED
OK: TULSA,01/07/2019 09:51:00,,1965.00,1129.00,340.00,170.00,112.00,133.00,78.00,45.00,APPROVED
OK: TULSA,01/07/2019 10:51:00,,1951.00,1126.00,338.00,172.00,110.00,136.00,83.00,46.00,APPROVED
OK: TULSA,01/07/2019 11:52:00,,1952.00,1112.00,333.00,169.00,110.00,135.00,80.00,47.00,APPROVED
OK: TULSA,01/07/2019 12:52:00,,1950.00,1117.00,332.00,170.00,108.00,134.00,78.00,46.00,APPROVED
OK: TULSA,01/07/2019 13:52:00,,1964.00,1119.00,341.00,171.00,110.00,133.00,81.00,44.00,APPROVED
OK: TULSA,01/07/2019 14:52:00,,1986.00,1140.00,345.00,177.00,110.00,138.00,83.00,46.00,APPROVED
OK: TULSA,01/07/2019 15:52:00,,2079.00,1227.00,360.00,187.00,117.00,148.00,88.00,48.00,APPROVED
OK: TULSA,01/07/2019 16:53:00,,2148.00,1305.00,384.00,206.00,122.00,156.00,91.00,50.00,APPROVED
OK: TULSA,01/07/2019 17:53:00,,2157.00,1321.00,391.00,214.00,127.00,160.00,94.00,50.00,APPROVED
OK: TULSA,01/07/2019 18:53:00,,2144.00,1319.00,389.00,215.00,125.00,162.00,93.00,50.00,APPROVED
OK: TULSA,01/07/2019 19:53:00,,2156.00,1323.00,389.00,217.00,126.00,164.00,93.00,49.00,APPROVED
OK: TULSA,01/07/2019 20:53:00,,2147.00,1302.00,391.00,214.00,128.00,163.00,93.00,50.00,APPROVED
OK: TULSA,01/07/2019 21:54:00,,2148.00,1314.00,387.00,210.00,125.00,161.00,95.00,49.00,APPROVED
OK: TULSA,01/07/2019 22:54:00,,2124.00,1281.00,380.00,208.00,124.00,155.00,90.00,49.00,APPROVED
OK: TULSA,01/07/2019 23:54:00,,2118.00,1268.00,376.00,198.00,120.00,156.00,87.00,48.00,APPROVED
OK: TULSA,01/08/2019 00:54:00,,2123.00,1259.00,371.00,200.00,120.00,153.00,88.00,47.00,APPROVED
OK: TULSA,01/08/2019 01:55:00,,2133.00,1296.00,384.00,208.00,123.00,158.00,94.00,49.00,APPROVED
OK: TULSA,01/08/2019 02:55:00,,2169.00,1351.00,396.00,222.00,127.00,166.00,94.00,51.00,APPROVED
OK: TULSA,01/08/2019 03:55:00,,2187.00,1409.00,410.00,231.00,133.00,176.00,97.00,52.00,APPROVED
OK: TULSA,01/08/2019 04:55:00,,2207.00,1438.00,429.00,243.00,138.00,178.00,102.00,53.00,APPROVED
OK: TULSA,01/08/2019 05:55:00,,2218.00,1472.00,428.00,246.00,138.00,182.00,104.00,52.00,APPROVED
OK: TULSA,01/08/2019 06:56:00,,2214.00,1456.00,432.00,249.00,140.00,185.00,105.00,54.00,APPROVED
OK: TULSA,01/08/2019 07:56:00,,2183.00,1436.00,425.00,247.00,138.00,184.00,104.00,54.00,APPROVED
OK: TULSA,01/08/2019 08:56:00,,2201.00,1469.00,433.00,255.00,142.00,186.00,106.00,55.00,APPROVED
OK: TULSA,01/08/2019 09:56:00,,2206.00,1480.00,435.00,255.00,141.00,186.00,106.00,55.00,APPROVED
OK: TULSA,01/08/2019 10:56:00,,2215.00,1498.00,449.00,258.00,142.00,190.00,106.00,55.00,APPROVED
OK: TULSA,01/08/2019 11:57:00,,2113.00,1344.00,414.00,233.00,133.00,175.00,99.00,50.00,APPROVED
OK: TULSA,01/08/2019 12:57:00,,2030.00,1238.00,378.00,200.00,120.00,153.00,90.00,49.00,APPROVED
OK: TULSA,01/08/2019 13:57:00,,1994.00,1188.00,359.00,191.00,115.00,147.00,85.00,46.00,APPROVED
OK: TULSA,01/08/2019 14:57:00,,1965.00,1166.00,355.00,186.00,112.00,143.00,86.00,47.00,APPROVED
OK: TULSA,01/08/2019 16:29:00,,1907.00,1079.00,325.00,167.00,105.00,129.00,81.00,43.00,APPROVED
OK: TULSA,01/08/2019 17:29:00,,1940.00,1121.00,337.00,174.00,111.00,138.00,81.00,47.00,APPROVED
OK: TULSA,01/08/2019 18:29:00,,1939.00,1138.00,341.00,179.00,116.00,141.00,84.00,47.00,APPROVED
OK: TULSA,01/08/2019 19:29:00,,1951.00,1138.00,344.00,183.00,114.00,140.00,83.00,47.00,APPROVED
OK: TULSA,01/08/2019 20:30:00,,1932.00,1117.00,332.00,174.00,112.00,137.00,83.00,46.00,APPROVED
OK: TULSA,01/08/2019 21:30:00,,1923.00,1101.00,332.00,173.00,107.00,133.00,83.00,44.00,APPROVED
OK: TULSA,01/08/2019 22:30:00,,1920.00,1092.00,327.00,165.00,105.00,132.00,81.00,46.00,APPROVED
OK: TULSA,01/08/2019 23:30:00,,1900.00,1079.00,323.00,167.00,105.00,132.00,78.00,45.00,APPROVED
OK: TULSA,01/09/2019 00:31:00,,1880.00,1063.00,323.00,159.00,106.00,130.00,77.00,43.00,APPROVED
OK: TULSA,01/09/2019 01:31:00,,1884.00,1080.00,326.00,169.00,105.00,130.00,77.00,43.00,APPROVED
OK: TULSA,01/09/2019 02:31:00,,1899.00,1078.00,325.00,167.00,108.00,131.00,77.00,46.00,APPROVED
OK: TULSA,01/09/2019 03:31:00,,1895.00,1084.00,325.00,163.00,107.00,131.00,80.00,44.00,APPROVED
OK: TULSA,01/09/2019 04:31:00,,1883.00,1082.00,324.00,167.00,106.00,132.00,80.00,44.00,APPROVED
OK: TULSA,01/09/2019 05:32:00,,1905.00,1072.00,321.00,162.00,107.00,134.00,79.00,44.00,APPROVED
OK: TULSA,01/09/2019 06:32:00,,1897.00,1077.00,324.00,165.00,108.00,130.00,77.00,44.00,APPROVED
OK: TULSA,01/09/2019 07:32:00,,1882.00,1077.00,326.00,166.00,107.00,132.00,78.00,44.00,APPROVED
OK: TULSA,01/09/2019 08:32:00,,1884.00,1075.00,328.00,165.00,106.00,132.00,78.00,42.00,APPROVED
OK: TULSA,01/09/2019 09:32:00,,1896.00,1103.00,332.00,167.00,107.00,134.00,79.00,45.00,APPROVED
OK: TULSA,01/09/2019 10:33:00,,1911.00,1120.00,339.00,172.00,111.00,138.00,81.00,46.00,APPROVED
OK: TULSA,01/09/2019 11:33:00,,1928.00,1142.00,346.00,180.00,114.00,144.00,83.00,46.00,APPROVED
OK: TULSA,01/09/2019 12:33:00,,1945.00,1180.00,354.00,187.00,119.00,146.00,86.00,48.00,APPROVED
OK: TULSA,01/09/2019 13:33:00,,1948.00,1202.00,369.00,193.00,117.00,155.00,87.00,49.00,APPROVED
OK: TULSA,01/09/2019 14:33:00,,1961.00,1208.00,365.00,198.00,123.00,152.00,90.00,48.00,APPROVED
OK: TULSA,01/09/2019 15:34:00,,1939.00,1142.00,347.00,182.00,114.00,144.00,85.00,47.00,APPROVED
OK: TULSA,01/09/2019 16:34:00,,1935.00,1125.00,343.00,173.00,110.00,135.00,81.00,46.00,APPROVED
OK: TULSA,01/09/2019 17:34:00,,1934.00,1131.00,332.00,175.00,112.00,136.00,81.00,46.00,APPROVED
OK: TULSA,01/09/2019 18:34:00,,1932.00,1125.00,340.00,174.00,109.00,137.00,82.00,46.00,APPROVED
OK: TULSA,01/09/2019 19:34:00,,1919.00,1118.00,334.00,170.00,108.00,136.00,80.00,47.00,APPROVED
OK: TULSA,01/09/2019 20:35:00,,1931.00,1113.00,337.00,177.00,108.00,137.00,81.00,44.00,APPROVED
OK: TULSA,01/09/2019 21:35:00,,1923.00,1107.00,329.00,171.00,111.00,136.00,80.00,47.00,APPROVED
OK: TULSA,01/09/2019 22:35:00,,1928.00,1104.00,333.00,170.00,107.00,135.00,81.00,47.00,APPROVED
OK: TULSA,01/09/2019 23:35:00,,1912.00,1105.00,328.00,169.00,110.00,134.00,81.00,45.00,APPROVED
OK: TULSA,01/10/2019 00:36:00,,1918.00,1103.00,330.00,166.00,106.00,134.00,80.00,46.00,APPROVED
OK: TULSA,01/10/2019 01:36:00,,1936.00,1125.00,336.00,172.00,109.00,136.00,82.00,45.00,APPROVED
OK: TULSA,01/10/2019 02:36:00,,1985.00,1183.00,352.00,185.00,115.00,146.00,85.00,46.00,APPROVED
OK: TULSA,01/10/2019 03:36:00,,1999.00,1229.00,361.00,194.00,123.00,151.00,87.00,50.00,APPROVED
OK: TULSA,01/10/2019 04:36:00,,2021.00,1253.00,376.00,202.00,122.00,154.00,90.00,49.00,APPROVED
OK: TULSA,01/10/2019 05:37:00,,2049.00,1287.00,389.00,210.00,126.00,162.00,94.00,49.00,APPROVED
OK: TULSA,01/10/2019 06:37:00,,2071.00,1326.00,397.00,219.00,127.00,168.00,92.00,52.00,APPROVED
OK: TULSA,01/10/2019 07:37:00,,2110.00,1363.00,412.00,232.00,132.00,174.00,101.00,50.00,APPROVED
OK: TULSA,01/10/2019 08:37:00,,2092.00,1372.00,420.00,231.00,132.00,179.00,101.00,51.00,APPROVED
OK: TULSA,01/10/2019 09:37:00,,2142.00,1427.00,425.00,241.00,136.00,182.00,103.00,53.00,APPROVED
OK: TULSA,01/10/2019 10:38:00,,2175.00,1453.00,440.00,246.00,140.00,185.00,104.00,54.00,APPROVED
OK: TULSA,01/10/2019 11:38:00,,2192.00,1464.00,445.00,248.00,143.00,191.00,104.00,53.00,APPROVED
OK: TULSA,01/10/2019 12:38:00,,2209.00,1495.00,457.00,254.00,147.00,192.00,107.00,57.00,APPROVED
OK: TULSA,01/10/2019 13:38:00,,2222.00,1523.00,463.00,261.00,147.00,195.00,108.00,55.00,APPROVED
OK: TULSA,01/10/2019 14:38:00,,2233.00,1496.00,458.00,261.00,145.00,196.00,108.00,55.00,APPROVED
OK: TULSA,01/10/2019 15:22:00,,2182.00,1437.00,437.00,250.00,139.00,185.00,105.00,56.00,APPROVED
OK: TULSA,01/10/2019 16:28:00,,2004.00,1160.00,346.00,179.00,113.00,140.00,82.00,46.00,APPROVED
OK: TULSA,01/10/2019 17:28:00,,1935.00,1133.00,344.00,178.00,114.00,136.00,81.00,46.00,APPROVED
OK: TULSA,01/10/2019 18:28:00,,1925.00,1096.00,331.00,168.00,109.00,136.00,80.00,45.00,APPROVED
OK: TULSA,01/10/2019 19:29:00,,1920.00,1092.00,326.00,165.00,108.00,135.00,79.00,46.00,APPROVED
OK: TULSA,01/10/2019 20:29:00,,1911.00,1091.00,326.00,167.00,107.00,131.00,78.00,45.00,APPROVED
OK: TULSA,01/10/2019 21:29:00,,1902.00,1079.00,323.00,164.00,109.00,132.00,79.00,43.00,APPROVED
OK: TULSA,01/10/2019 22:29:00,,1897.00,1077.00,323.00,164.00,107.00,130.00,79.00,45.00,APPROVED
OK: TULSA,01/10/2019 23:29:00,,1915.00,1082.00,325.00,164.00,107.00,130.00,79.00,43.00,APPROVED
OK: TULSA,01/11/2019 00:30:00,,1919.00,1087.00,324.00,166.00,106.00,130.00,79.00,44.00,APPROVED
OK: TULSA,01/11/2019 01:30:00,,1938.00,1097.00,332.00,169.00,110.00,134.00,79.00,44.00,APPROVED
OK: TULSA,01/11/2019 02:30:00,,1993.00,1154.00,344.00,177.00,112.00,138.00,84.00,46.00,APPROVED
OK: TULSA,01/11/2019 03:30:00,,2081.00,1230.00,367.00,190.00,118.00,149.00,89.00,47.00,APPROVED
OK: TULSA,01/11/2019 04:31:00,,2279.00,1398.00,424.00,220.00,132.00,168.00,97.00,50.00,APPROVED
OK: TULSA,01/11/2019 05:31:00,,2030.00,1196.00,367.00,187.00,118.00,148.00,84.00,47.00,APPROVED
OK: TULSA,01/11/2019 06:31:00,,1939.00,1116.00,338.00,175.00,111.00,135.00,81.00,45.00,APPROVED
OK: TULSA,01/11/2019 07:31:00,,1925.00,1090.00,327.00,170.00,109.00,134.00,78.00,46.00,APPROVED
OK: TULSA,01/11/2019 08:31:00,,1915.00,1093.00,328.00,165.00,105.00,132.00,76.00,45.00,APPROVED
OK: TULSA,01/11/2019 09:32:00,,1923.00,1090.00,334.00,166.00,107.00,134.00,79.00,43.00,APPROVED
OK: TULSA,01/11/2019 10:32:00,,1928.00,1095.00,328.00,169.00,110.00,135.00,80.00,45.00,APPROVED
OK: TULSA,01/11/2019 11:32:00,,1929.00,1092.00,332.00,165.00,109.00,132.00,79.00,46.00,APPROVED